Torna al catalogo

STARLINK-2478

AttivoComunicazioniVLEO
NORAD 48135·PAYLOAD·🇺🇸 United States

Lanciato Apr 7, 2021 da Cape Canaveral Space Force Station

Loading…

Prossimi Passaggi (prossime 24 ore)

TLE

AggiornatoSource: CelesTrak SupGP

Epoca: Sep 14, 2026, 14:28 UTC

1 48135C 21027AV  26257.60326389 -.00008883  00000+0 -28557-3 0  2577
2 48135  53.1599   8.8031 0001024  90.4399 275.0820 15.31715279    12

Traccia STARLINK-2478 in tempo reale con AllMySat

Download on the App Store